Flag for Australia Weather past 2 weeks in Cairns, Queensland, Australia

Now
73 °F

Passing clouds.


Feels Like: 76 °F
Forecast: 69 / 84 °F
Wind: 9 mph from Southeast

Location: Cairns Airport

Current Time: Oct 2, 2014 at 9:40:51 PM

Latest Report: Oct 2, 2014 at 9:00 PM


Visibility: N/A

Pressure: 30.04 "Hg

Humidity: 65%

Dew point: 61 °F

Location of CairnsLocation

Historic Weather in Cairns — Graph

°F

Cairns temperature yesterday

Maximum temperature yesterday: 84 °F (at 12:00 PM)
Minimum temperature yesterday: 66 °F (at 3:00 AM)
Average temperature yesterday: 74 °F

Past Weeks' High & Low Weather Summary

 TemperatureHumidityPressure
High86 °F (Sep 20, 1:30 PM)100% (Sep 19, 12:30 AM)30.09 "Hg (Sep 19, 12:30 AM)
Low55 °F (Sep 18, 3:30 AM)29% (Sep 20, 2:00 PM)29.92 "Hg (Sep 20, 2:00 PM)
Average74 °F67%30.01 "Hg
* Reported Sep 17 8:00 PM — Oct 2 8:00 PM, Cairns, Weather by CustomWeather, © 2014

Note: Actual official high and low records may vary slightly from our data, if they occured in-between our weather recording intervals... More about our weather records

Advertising

Cairns weather history for previous 24 hours

 ConditionsComfort  
Time TempWeatherWind HumidityBarometerVisibility
8:00 PM
Oct 2
73 °FPassing clouds.10 mph61%30.01 "HgN/A
7:30 PM73 °FPassing clouds.13 mph61%30.01 "HgN/A
7:00 PM75 °FPassing clouds.20 mph61%29.98 "HgN/A
6:30 PM75 °FPassing clouds.23 mph61%29.98 "HgN/A
6:00 PM75 °FPassing clouds.20 mph57%29.98 "HgN/A
5:30 PM77 °FPassing clouds.18 mph51%29.95 "HgN/A
5:00 PM79 °FPassing clouds.20 mph51%29.95 "HgN/A
4:30 PM79 °FPassing clouds.21 mph48%29.95 "HgN/A
4:00 PM81 °FPassing clouds.20 mph48%29.95 "HgN/A
3:30 PM81 °FPassing clouds.18 mph45%29.95 "HgN/A
3:00 PM82 °FPassing clouds.15 mph42%29.95 "HgN/A
2:30 PM82 °FPassing clouds.15 mph42%29.95 "HgN/A
2:00 PM82 °FPassing clouds.15 mph40%29.95 "HgN/A
1:30 PM82 °FPassing clouds.15 mph40%29.98 "HgN/A
1:00 PM84 °FPassing clouds.16 mph37%29.98 "HgN/A
12:30 PM82 °FPassing clouds.16 mph42%29.98 "HgN/A
12:00 PM82 °FScattered clouds.17 mph45%30.01 "HgN/A
11:30 AM81 °FScattered clouds.16 mph45%30.01 "HgN/A
11:00 AM82 °FScattered clouds.17 mph42%30.01 "HgN/A
10:30 AM81 °FScattered clouds.17 mph45%30.01 "HgN/A
10:00 AM81 °FScattered clouds.17 mph45%30.01 "HgN/A
9:30 AM79 °FScattered clouds.15 mph48%30.01 "HgN/A
9:00 AM79 °FPartly sunny.13 mph48%30.01 "HgN/A
8:30 AM77 °FScattered clouds.12 mph54%30.01 "HgN/A
8:00 AM73 °FPartly sunny.12 mph57%30.01 "HgN/A
7:00 AM72 °FPassing clouds.9 mph65%29.98 "HgN/A
6:30 AM66 °FPassing clouds.10 mph83%29.98 "HgN/A
6:00 AM64 °FPassing clouds.10 mph83%29.98 "HgN/A
5:30 AM64 °FPassing clouds.10 mph83%29.98 "HgN/A
5:00 AM64 °FPassing clouds.10 mph83%29.95 "HgN/A
4:30 AM64 °FPassing clouds.10 mph88%29.95 "HgN/A
4:00 AM66 °FPassing clouds.10 mph78%29.95 "HgN/A
3:30 AM66 °FPassing clouds.8 mph78%29.95 "HgN/A
3:00 AM68 °FPassing clouds.8 mph73%29.95 "HgN/A
2:30 AM66 °FPassing clouds.12 mph83%29.95 "HgN/A
2:00 AM68 °FPassing clouds.6 mph78%29.95 "HgN/A
1:30 AM66 °FPassing clouds.10 mph83%29.98 "HgN/A
1:00 AM68 °FPassing clouds.8 mph78%29.98 "HgN/A
12:30 AM70 °FPassing clouds.5 mph73%29.98 "HgN/A
12:00 AM68 °FPassing clouds.7 mph78%30.01 "HgN/A
11:30 PM
Oct 1
70 °FPassing clouds.6 mph78%30.01 "HgN/A
11:00 PM70 °FPassing clouds.6 mph78%30.01 "HgN/A
10:30 PM70 °FPassing clouds.7 mph78%30.01 "HgN/A
10:00 PM70 °FPassing clouds.6 mph78%30.01 "HgN/A
9:30 PM72 °FPassing clouds.7 mph73%30.01 "HgN/A
9:00 PM72 °FPassing clouds.7 mph69%30.01 "HgN/A
Weather by CustomWeather, © 2014

See weather overviewHow to use our weather pages